Location: Los Gatos B&B
(42.6926°N, 77.0646°W)
Time: 06:50:51
(UTC-05:00)

SL-16 R/B - Visible Passes

Search period start: 08 December 2016 00:00
Search period end: 18 December 2016 00:00
Orbit: 842 x 847 km, 71.0° (Epoch: 06 December)

Date Brightness Start Highest point End Pass type
(mag) Time Alt. Az. Time Alt. Az. Time Alt. Az.
08 Dec 4.0 04:27:06 20° NNE 04:27:06 20° NNE 04:28:48 10° NNE visible
08 Dec 4.0 06:09:01 13° NW 06:09:01 13° NW 06:10:53 10° NNW visible
09 Dec 4.5 04:13:55 15° NNE 04:13:55 15° NNE 04:14:46 10° NNE visible
09 Dec 4.1 05:55:50 12° NNW 05:55:50 12° NNW 05:56:55 10° NNW visible
10 Dec 4.8 04:00:38 10° NNE 04:00:38 10° NNE 04:00:42 10° NNE visible
10 Dec 4.3 05:42:32 11° NNW 05:42:32 11° NNW 05:42:57 10° NNW visible
